Regional Weather Roundup
Issued by NWS

Home | Current Version | Previous Version | Text Only | Print | Product List | Glossary On
Versions: 1 2 3 4 5 6 7 8 9 10 11 12 13 14 15 16 17 18 19 20 21 22 23 24 25 26 27 28 29 30 31 32 33 34 35 36 37 38 39 40 41 42 43 44 45 46 47 48 49 50
467
ASUS43 KDMX 260301
RWRIA

WEATHER ROUNDUP FOR IOWA
NATIONAL WEATHER SERVICE DES MOINES IA
1000 PM CDT FRI MAY 25 2018

NOTE: "FAIR" INDICATES FEW OR NO CLOUDS BELOW 12,000 FEET WITH NO
SIGNIFICANT WEATHER AND/OR OBSTRUCTIONS TO VISIBILITY.

* - THESE STATIONS ARE NOT NWS STATIONS...THUS NOT UNDER NWS
QUALITY CONTROL.  THEY ALSO DO NOT REPORT WEATHER SUCH
AS PRECIPITATION OR FOG.

IAZ001>003-012>014-020>022-031>034-043>046-260400-
   NORTHWEST IOWA

CITY           SKY/WX    TMP DP  RH WIND       PRES   REMARKS
CARROLL *      PTCLDY    81  55  41 CALM      29.73S HX  80
CHEROKEE *     CLEAR     72  57  59 CALM      29.75R
DENISON *      CLEAR     75  64  69 E3        29.76R
LE MARS *      CLEAR     77  55  47 CALM      29.74R
ORANGE CITY *  CLEAR     79  55  44 E5        29.76R
SHELDON *      CLEAR     73  54  49 CALM      29.74R
SIOUX CITY     PTCLDY    78  62  57 CALM      29.73R HX  80
SPENCER        CLEAR     67  59  75 W3        29.74S
STORM LAKE *   PTCLDY    75  57  53 NE9       29.77R
$$

IAZ055>058-069>071-079>083-090>094-260400-
   SOUTHWEST IOWA

CITY           SKY/WX    TMP DP  RH WIND       PRES   REMARKS
ATLANTIC *     PTCLDY    75  63  64 CALM      29.75R
AUDUBON *      CLEAR     70  64  83 CALM      29.76S
CLARINDA *       N/A     75  66  73 CALM      29.78R
COUNCIL BLFS * CLOUDY    82  59  44 E5        29.75R HX  82
CRESTON *      CLEAR     77  64  65 S8        29.79R
HARLAN  *      CLEAR     73  61  64 CALM      29.78R
LAMONI         PTCLDY    76  66  71 S9        29.79R
RED OAK *      CLEAR     75  63  64 CALM      29.75R
SHENANDOAH *   CLEAR     79  61  53 SE9       29.75R HX  80
$$

IAZ047>049-059>061-072>074-084-260400-
   CENTRAL IOWA

CITY           SKY/WX    TMP DP  RH WIND       PRES   REMARKS
AMES           PTCLDY    72  66  81 S5        29.75R
ANKENY *       PTCLDY    77  68  73 S5        29.75R
BOONE *        MOCLDY    79  63  57 SE16G22   29.74R HX  80
CHARITON *     CLEAR     75  68  78 S9        29.78R
DES MOINES     PTCLDY    79  67  66 SE10      29.74R HX  81
GRINNELL*      CLOUDY    76  66  71 S7        29.78S
KNOXVILLE *    PTCLDY    77  66  69 SE9       29.76R
MARSHALLTOWN   CLOUDY    72  69  90 S8        29.75R
NEWTON *       CLOUDY    73  66  78 SE8       29.77R
PELLA *        PTCLDY    73  67  82 S6        29.77F
PERRY *        FAIR      80  65  60 E5        29.73R HX  81
$$

IAZ004>006-015-016-023>025-035-036-260400-
   NORTH CENTRAL IOWA

CITY           SKY/WX    TMP DP  RH WIND       PRES   REMARKS
ALGONA *       PTCLDY    70  63  78 SE5       29.75S
CLARION *      CLOUDY    75  57  53 E10       29.77R
ESTHERVILLE    PTCLDY    71  59  65 S5        29.73R
FORT DODGE *   CLOUDY    76  58  53 NE8       29.77R
MASON CITY     CLOUDY    72  61  68 E7        29.79R
FOREST CITY *  FAIR      72  57  60 S6        29.78R
WEBSTER CITY * PTCLDY    79  63  57 NE9G18    29.75R HX  80
IOWA FALLS *   FAIR      72  67  82 S5        29.77R
$$

IAZ007>011-017>019-026>030-037>042-050>054-066-260400-
   NORTHEAST IOWA

CITY           SKY/WX    TMP DP  RH WIND       PRES   REMARKS
CEDAR RAPIDS   MOCLDY    74  64  71 NE28      29.80R
CHARLES CITY * CLOUDY    64  61  88 NE5       29.79F
CLINTON *      MOCLDY    72  61  68 N25G32    29.88R SQUALL
DECORAH *      FAIR      64  61  88 VRB7G14   29.81R
DUBUQUE        LGT RAIN  65  59  81 NE5       29.84F
MONTICELLO *   LGT RAIN  64  63  94 E8        29.81F
OELWEIN *      FAIR      64  63  94 E12       29.80S
WATERLOO       FAIR      70  63  78 E8        29.77R
$$

IAZ064-065-067-068-078-260400-
   EAST CENTRAL IOWA

CITY           SKY/WX    TMP DP  RH WIND       PRES   REMARKS
DAVENPORT      FAIR      73  66  78 S6        29.83R
IOWA CITY      FAIR      75  67  76 CALM      29.80R
MUSCATINE *    FAIR      75  68  78 SE7       29.80S
QUAD CITIES    FAIR      74  68  81 CALM      29.81R
$$

IAZ062-063-075>077-085>089-095>099-260400-
   SOUTHEAST IOWA

CITY           SKY/WX    TMP DP  RH WIND       PRES   REMARKS
BURLINGTON     CLEAR     71  66  84 CALM      29.82R
FAIRFIELD *    PTCLDY    73  66  78 S5        29.80R
FORT MADISON * CLEAR     73  66  78 S3        29.83R
KEOKUK *       CLEAR     72  66  83 CALM      29.81R
OSKALOOSA *    FAIR      74  65  73 S6        29.80R
CENTERVILLE *  FAIR      73  72  94 S8        29.82R
OTTUMWA        CLEAR     74  65  73 S7        29.79R
WASHINGTON *   PTCLDY    73  70  88 S5        29.81R
$$

ABBREVIATIONS USED IN REMARKS
   TC - TEMPERATURES IN CELSIUS
  WCI - WIND CHILL INDEX
   HX - HEAT INDEX
  VSB - VISIBILITY
$$





USA.gov is the U.S. government's official web portal to all federal, state and local government web resources and services.